Time,TemperatureF,DewpointF,PressureIn,WindDirection,WindDirectionDegrees,WindSpeedMPH,WindSpeedGustMPH,Humidity,HourlyPrecipIn,Conditions,Clouds,dailyrainin,SoftwareType,DateUTC
2013-05-10 00:01:00,62.8,57.8,30.08,ESE,112,0.0,0.0,84,0.00,,,0.00,WUHU21623XXSP,2013-05-10 04:01:00,
2013-05-10 00:06:00,62.4,57.5,30.08,ESE,112,0.0,0.0,84,0.00,,,0.00,WUHU21623XXSP,2013-05-10 04:06:00,
2013-05-10 00:11:00,62.4,57.5,30.09,ESE,112,0.0,0.0,84,0.00,,,0.00,WUHU21623XXSP,2013-05-10 04:11:00,
2013-05-10 00:16:00,62.4,57.5,30.09,ESE,112,0.0,0.0,84,0.00,,,0.00,WUHU21623XXSP,2013-05-10 04:16:00,
2013-05-10 00:21:00,62.2,57.3,30.09,ESE,112,0.0,0.0,84,0.00,,,0.00,WUHU21623XXSP,2013-05-10 04:21:00,
2013-05-10 00:27:00,62.1,57.1,30.09,ESE,112,0.0,0.0,84,0.00,,,0.00,WUHU21623XXSP,2013-05-10 04:27:00,
2013-05-10 00:32:00,61.9,57.3,30.09,ESE,112,0.0,0.0,85,0.00,,,0.00,WUHU21623XXSP,2013-05-10 04:32:00,
2013-05-10 00:37:00,61.5,57.0,30.09,ESE,112,0.0,0.0,85,0.00,,,0.00,WUHU21623XXSP,2013-05-10 04:37:00,
2013-05-10 00:42:00,61.5,57.0,30.09,ESE,112,0.0,0.0,85,0.00,,,0.00,WUHU21623XXSP,2013-05-10 04:42:00,
2013-05-10 00:47:00,61.3,56.8,30.09,ESE,112,0.0,0.0,85,0.00,,,0.00,WUHU21623XXSP,2013-05-10 04:47:00,
2013-05-10 00:52:00,61.2,56.6,30.09,ESE,112,0.0,0.0,85,0.00,,,0.00,WUHU21623XXSP,2013-05-10 04:52:00,
2013-05-10 00:57:00,61.0,56.5,30.09,ESE,112,0.0,0.0,85,0.00,,,0.00,WUHU21623XXSP,2013-05-10 04:57:00,
2013-05-10 01:02:00,61.0,56.5,30.09,ESE,112,0.0,0.0,85,0.00,,,0.00,WUHU21623XXSP,2013-05-10 05:02:00,
2013-05-10 01:07:00,60.6,56.4,30.09,ESE,112,0.0,0.0,86,0.00,,,0.00,WUHU21623XXSP,2013-05-10 05:07:00,
2013-05-10 01:12:00,60.6,56.4,30.09,ESE,112,0.0,0.0,86,0.00,,,0.00,WUHU21623XXSP,2013-05-10 05:12:00,
2013-05-10 01:17:00,60.4,56.3,30.09,ESE,112,0.0,0.0,86,0.00,,,0.00,WUHU21623XXSP,2013-05-10 05:17:00,
2013-05-10 01:22:00,60.4,56.3,30.09,ESE,112,0.0,0.0,86,0.00,,,0.00,WUHU21623XXSP,2013-05-10 05:22:00,
2013-05-10 01:27:00,60.1,55.9,30.09,ESE,112,0.0,0.0,86,0.00,,,0.00,WUHU21623XXSP,2013-05-10 05:27:00,
2013-05-10 01:32:00,60.1,55.9,30.08,ESE,112,0.0,0.0,86,0.00,,,0.00,WUHU21623XXSP,2013-05-10 05:32:00,
2013-05-10 01:37:00,59.9,56.0,30.08,ESE,112,0.0,0.0,87,0.00,,,0.00,WUHU21623XXSP,2013-05-10 05:37:00,
2013-05-10 01:41:00,59.7,55.9,30.07,ESE,112,0.0,0.0,87,0.00,,,0.00,WUHU21623XXSP,2013-05-10 05:41:00,
2013-05-10 01:47:00,59.7,55.9,30.07,ESE,112,0.0,0.0,87,0.00,,,0.00,WUHU21623XXSP,2013-05-10 05:47:00,
2013-05-10 01:52:00,59.5,55.7,30.07,ESE,112,0.0,0.0,87,0.00,,,0.00,WUHU21623XXSP,2013-05-10 05:52:00,
2013-05-10 01:57:00,59.4,55.5,30.07,ESE,112,0.0,0.0,87,0.00,,,0.00,WUHU21623XXSP,2013-05-10 05:57:00,
2013-05-10 02:02:00,59.2,55.3,30.07,ESE,112,0.0,0.0,87,0.00,,,0.00,WUHU21623XXSP,2013-05-10 06:02:00,
2013-05-10 02:07:00,58.8,55.0,30.07,ESE,112,0.0,0.0,87,0.00,,,0.00,WUHU21623XXSP,2013-05-10 06:07:00,
2013-05-10 02:12:00,58.8,55.0,30.06,ESE,112,0.0,0.0,87,0.00,,,0.00,WUHU21623XXSP,2013-05-10 06:12:00,
2013-05-10 02:17:00,58.8,55.0,30.06,ESE,112,0.0,0.0,87,0.00,,,0.00,WUHU21623XXSP,2013-05-10 06:17:00,
2013-05-10 02:22:00,58.8,55.0,30.06,ESE,112,0.0,0.0,87,0.00,,,0.00,WUHU21623XXSP,2013-05-10 06:22:00,
2013-05-10 02:27:00,58.8,55.0,30.06,ESE,112,0.0,0.0,87,0.00,,,0.00,WUHU21623XXSP,2013-05-10 06:27:00,
2013-05-10 02:32:00,58.8,55.0,30.06,ESE,112,0.0,0.0,87,0.00,,,0.00,WUHU21623XXSP,2013-05-10 06:32:00,
2013-05-10 02:37:00,58.8,55.0,30.06,ESE,112,0.0,0.0,87,0.00,,,0.00,WUHU21623XXSP,2013-05-10 06:37:00,
2013-05-10 02:42:00,58.8,55.0,30.05,ESE,112,0.0,0.0,87,0.00,,,0.00,WUHU21623XXSP,2013-05-10 06:42:00,
2013-05-10 02:47:00,58.6,54.8,30.05,ESE,112,0.0,0.0,87,0.00,,,0.00,WUHU21623XXSP,2013-05-10 06:47:00,
2013-05-10 02:52:00,58.6,54.8,30.05,ESE,112,0.0,0.0,87,0.00,,,0.00,WUHU21623XXSP,2013-05-10 06:52:00,
2013-05-10 02:57:00,58.5,54.6,30.05,ESE,112,0.0,0.0,87,0.00,,,0.00,WUHU21623XXSP,2013-05-10 06:57:00,
2013-05-10 03:02:00,58.3,54.4,30.05,ESE,112,0.0,0.0,87,0.00,,,0.00,WUHU21623XXSP,2013-05-10 07:02:00,
2013-05-10 03:07:00,58.3,54.8,30.05,ESE,112,0.0,0.0,88,0.00,,,0.00,WUHU21623XXSP,2013-05-10 07:07:00,
2013-05-10 03:12:00,58.1,54.6,30.05,ESE,112,0.0,0.0,88,0.00,,,0.00,WUHU21623XXSP,2013-05-10 07:12:00,
2013-05-10 03:17:00,57.9,54.4,30.05,ESE,112,0.0,0.0,88,0.00,,,0.00,WUHU21623XXSP,2013-05-10 07:17:00,
2013-05-10 03:22:00,57.9,54.4,30.05,ESE,112,0.0,0.0,88,0.00,,,0.00,WUHU21623XXSP,2013-05-10 07:22:00,
2013-05-10 03:27:00,57.7,54.2,30.04,ESE,112,0.0,0.0,88,0.00,,,0.00,WUHU21623XXSP,2013-05-10 07:27:00,
2013-05-10 03:32:00,57.7,54.2,30.05,ESE,112,0.0,0.0,88,0.00,,,0.00,WUHU21623XXSP,2013-05-10 07:32:00,
2013-05-10 03:37:00,57.6,54.0,30.04,ESE,112,0.0,0.0,88,0.00,,,0.00,WUHU21623XXSP,2013-05-10 07:37:00,
2013-05-10 03:42:00,57.6,54.0,30.05,ESE,112,0.0,0.0,88,0.00,,,0.00,WUHU21623XXSP,2013-05-10 07:42:00,
2013-05-10 03:47:00,57.4,53.9,30.04,ESE,112,0.0,0.0,88,0.00,,,0.00,WUHU21623XXSP,2013-05-10 07:47:00,
2013-05-10 03:52:00,57.4,53.9,30.05,ESE,112,0.0,0.0,88,0.00,,,0.00,WUHU21623XXSP,2013-05-10 07:52:00,
2013-05-10 03:57:00,57.0,53.5,30.05,ESE,112,0.0,0.0,88,0.00,,,0.00,WUHU21623XXSP,2013-05-10 07:57:00,
2013-05-10 04:02:00,57.0,53.5,30.04,ESE,112,0.0,0.0,88,0.00,,,0.00,WUHU21623XXSP,2013-05-10 08:02:00,
2013-05-10 04:07:00,57.0,53.5,30.05,ESE,112,0.0,0.0,88,0.00,,,0.00,WUHU21623XXSP,2013-05-10 08:07:00,
2013-05-10 04:12:00,57.0,53.5,30.05,ESE,112,0.0,0.0,88,0.00,,,0.00,WUHU21623XXSP,2013-05-10 08:12:00,
2013-05-10 04:17:00,56.8,53.3,30.04,ESE,112,0.0,0.0,88,0.00,,,0.00,WUHU21623XXSP,2013-05-10 08:17:00,
2013-05-10 04:22:00,56.8,53.3,30.04,ESE,112,0.0,0.0,88,0.00,,,0.00,WUHU21623XXSP,2013-05-10 08:22:00,
2013-05-10 04:27:00,56.8,53.3,30.04,ESE,112,0.0,0.0,88,0.00,,,0.00,WUHU21623XXSP,2013-05-10 08:27:00,
2013-05-10 04:32:00,56.8,53.3,30.04,ESE,112,0.0,0.0,88,0.00,,,0.00,WUHU21623XXSP,2013-05-10 08:32:00,
2013-05-10 04:37:00,56.7,53.1,30.04,ESE,112,0.0,0.0,88,0.00,,,0.00,WUHU21623XXSP,2013-05-10 08:37:00,
2013-05-10 04:42:00,56.7,53.1,30.04,ESE,112,0.0,0.0,88,0.00,,,0.00,WUHU21623XXSP,2013-05-10 08:42:00,
2013-05-10 04:47:00,56.5,53.0,30.04,ESE,112,0.0,0.0,88,0.00,,,0.00,WUHU21623XXSP,2013-05-10 08:47:00,
2013-05-10 04:52:00,56.5,53.0,30.04,ESE,112,0.0,0.0,88,0.00,,,0.00,WUHU21623XXSP,2013-05-10 08:52:00,
2013-05-10 04:57:00,56.5,53.0,30.04,ESE,112,0.0,0.0,88,0.00,,,0.00,WUHU21623XXSP,2013-05-10 08:57:00,
2013-05-10 05:02:00,56.3,52.8,30.04,ESE,112,0.0,0.0,88,0.00,,,0.00,WUHU21623XXSP,2013-05-10 09:02:00,
2013-05-10 05:07:00,56.1,52.6,30.04,ESE,112,0.0,0.0,88,0.00,,,0.00,WUHU21623XXSP,2013-05-10 09:07:00,
2013-05-10 05:12:00,56.3,52.8,30.04,ESE,112,0.0,0.0,88,0.00,,,0.00,WUHU21623XXSP,2013-05-10 09:12:00,
2013-05-10 05:17:00,56.1,52.6,30.04,ESE,112,0.0,0.0,88,0.00,,,0.00,WUHU21623XXSP,2013-05-10 09:17:00,
2013-05-10 05:22:00,56.1,52.6,30.04,ESE,112,0.0,0.0,88,0.00,,,0.00,WUHU21623XXSP,2013-05-10 09:22:00,
2013-05-10 05:27:00,56.1,52.6,30.03,ESE,112,0.0,0.0,88,0.00,,,0.00,WUHU21623XXSP,2013-05-10 09:27:00,
2013-05-10 05:32:00,56.1,52.6,30.03,ESE,112,0.0,0.0,88,0.00,,,0.00,WUHU21623XXSP,2013-05-10 09:32:00,
2013-05-10 05:37:00,55.9,52.4,30.03,ESE,112,0.0,0.0,88,0.00,,,0.00,WUHU21623XXSP,2013-05-10 09:37:00,
2013-05-10 05:42:00,55.9,52.4,30.03,ESE,112,0.0,0.0,88,0.00,,,0.00,WUHU21623XXSP,2013-05-10 09:42:00,
2013-05-10 05:47:00,55.9,52.4,30.03,ESE,112,0.0,0.0,88,0.00,,,0.00,WUHU21623XXSP,2013-05-10 09:47:00,
2013-05-10 05:52:00,55.9,52.4,30.03,ESE,112,0.0,0.0,88,0.00,,,0.00,WUHU21623XXSP,2013-05-10 09:52:00,
2013-05-10 05:57:00,55.9,52.4,30.03,ESE,112,0.0,0.0,88,0.00,,,0.00,WUHU21623XXSP,2013-05-10 09:57:00,
2013-05-10 06:02:00,55.9,52.4,30.03,ESE,112,0.0,0.0,88,0.00,,,0.00,WUHU21623XXSP,2013-05-10 10:02:00,
2013-05-10 06:07:00,55.8,52.2,30.03,ESE,112,0.0,0.0,88,0.00,,,0.00,WUHU21623XXSP,2013-05-10 10:07:00,
2013-05-10 06:12:00,55.8,52.2,30.03,ESE,112,0.0,0.0,88,0.00,,,0.00,WUHU21623XXSP,2013-05-10 10:12:00,
2013-05-10 06:17:00,55.8,52.2,30.03,ESE,112,0.0,0.0,88,0.00,,,0.00,WUHU21623XXSP,2013-05-10 10:17:00,
2013-05-10 06:22:00,55.8,52.2,30.03,ESE,112,0.0,0.0,88,0.00,,,0.00,WUHU21623XXSP,2013-05-10 10:22:00,
2013-05-10 06:27:00,55.8,52.2,30.03,ESE,112,0.0,0.0,88,0.00,,,0.00,WUHU21623XXSP,2013-05-10 10:27:00,
2013-05-10 06:32:00,55.8,52.2,30.03,ESE,112,0.0,0.0,88,0.00,,,0.00,WUHU21623XXSP,2013-05-10 10:32:00,
2013-05-10 06:37:00,55.6,52.1,30.03,ESE,112,0.0,0.0,88,0.00,,,0.00,WUHU21623XXSP,2013-05-10 10:37:00,
2013-05-10 06:42:00,55.9,52.4,30.03,ESE,112,0.0,0.0,88,0.00,,,0.00,WUHU21623XXSP,2013-05-10 10:42:00,
2013-05-10 06:47:00,56.1,52.6,30.04,ESE,112,0.0,0.0,88,0.00,,,0.00,WUHU21623XXSP,2013-05-10 10:47:00,
2013-05-10 06:52:00,55.9,52.4,30.04,ESE,112,0.0,0.0,88,0.00,,,0.00,WUHU21623XXSP,2013-05-10 10:52:00,
2013-05-10 06:57:00,55.8,52.2,30.04,ESE,112,0.0,0.0,88,0.00,,,0.00,WUHU21623XXSP,2013-05-10 10:57:00,
2013-05-10 07:02:00,55.6,52.1,30.04,ESE,112,0.0,0.0,88,0.00,,,0.00,WUHU21623XXSP,2013-05-10 11:02:00,
2013-05-10 07:07:00,55.8,52.2,30.04,ESE,112,0.0,0.0,88,0.00,,,0.00,WUHU21623XXSP,2013-05-10 11:07:00,
2013-05-10 07:12:00,55.8,52.2,30.04,ESE,112,0.0,0.0,88,0.00,,,0.00,WUHU21623XXSP,2013-05-10 11:12:00,
2013-05-10 07:17:00,55.8,52.2,30.05,ESE,112,0.0,0.0,88,0.00,,,0.00,WUHU21623XXSP,2013-05-10 11:17:00,
2013-05-10 07:22:00,55.8,52.2,30.05,ESE,112,0.0,0.0,88,0.00,,,0.00,WUHU21623XXSP,2013-05-10 11:22:00,
2013-05-10 07:27:00,55.9,52.4,30.04,ESE,112,0.0,0.0,88,0.00,,,0.00,WUHU21623XXSP,2013-05-10 11:27:00,
2013-05-10 07:32:00,55.9,52.4,30.05,ESE,112,0.0,0.0,88,0.00,,,0.00,WUHU21623XXSP,2013-05-10 11:32:00,
2013-05-10 07:37:00,56.3,52.8,30.04,ESE,112,0.0,0.0,88,0.00,,,0.00,WUHU21623XXSP,2013-05-10 11:37:00,
2013-05-10 07:42:00,56.5,53.0,30.04,ESE,112,0.0,0.0,88,0.00,,,0.00,WUHU21623XXSP,2013-05-10 11:42:00,
2013-05-10 07:47:00,56.8,53.3,30.04,ESE,112,0.0,0.0,88,0.00,,,0.00,WUHU21623XXSP,2013-05-10 11:47:00,
2013-05-10 07:52:00,57.0,53.5,30.04,ESE,112,0.0,0.0,88,0.00,,,0.00,WUHU21623XXSP,2013-05-10 11:52:00,
2013-05-10 07:57:00,57.4,53.9,30.04,ESE,112,0.0,0.0,88,0.00,,,0.00,WUHU21623XXSP,2013-05-10 11:57:00,
2013-05-10 08:02:00,57.7,54.2,30.04,ESE,112,0.0,0.0,88,0.00,,,0.00,WUHU21623XXSP,2013-05-10 12:02:00,
2013-05-10 08:07:00,57.9,54.4,30.05,ESE,112,0.0,0.0,88,0.00,,,0.00,WUHU21623XXSP,2013-05-10 12:07:00,
2013-05-10 08:12:00,58.5,54.9,30.04,ESE,112,0.0,0.0,88,0.00,,,0.00,WUHU21623XXSP,2013-05-10 12:12:00,
2013-05-10 08:17:00,58.8,55.3,30.04,ESE,112,0.0,0.0,88,0.00,,,0.00,WUHU21623XXSP,2013-05-10 12:17:00,
2013-05-10 08:22:00,58.8,55.3,30.04,ESE,112,0.0,0.0,88,0.00,,,0.00,WUHU21623XXSP,2013-05-10 12:22:00,
2013-05-10 08:27:00,59.0,55.5,30.05,ESE,112,0.0,0.0,88,0.00,,,0.00,WUHU21623XXSP,2013-05-10 12:27:00,
2013-05-10 08:32:00,59.5,56.0,30.05,ESE,112,0.0,0.0,88,0.00,,,0.00,WUHU21623XXSP,2013-05-10 12:32:00,
2013-05-10 08:37:00,60.1,56.6,30.05,ESE,112,0.0,0.0,88,0.00,,,0.00,WUHU21623XXSP,2013-05-10 12:37:00,
2013-05-10 08:42:00,60.3,56.7,30.05,ESE,112,0.0,0.0,88,0.00,,,0.00,WUHU21623XXSP,2013-05-10 12:42:00,
2013-05-10 08:47:00,60.4,56.9,30.05,ESE,112,0.0,0.0,88,0.00,,,0.00,WUHU21623XXSP,2013-05-10 12:47:00,
2013-05-10 08:52:00,60.4,56.9,30.05,ESE,112,0.0,0.0,88,0.00,,,0.00,WUHU21623XXSP,2013-05-10 12:52:00,
2013-05-10 08:57:00,60.4,56.9,30.05,ESE,112,0.0,0.0,88,0.00,,,0.00,WUHU21623XXSP,2013-05-10 12:57:00,
2013-05-10 09:02:00,60.4,56.9,30.06,ESE,112,0.0,0.0,88,0.00,,,0.00,WUHU21623XXSP,2013-05-10 13:02:00,
2013-05-10 09:07:00,60.6,57.1,30.06,ESE,112,0.0,0.0,88,0.00,,,0.00,WUHU21623XXSP,2013-05-10 13:07:00,
2013-05-10 09:12:00,60.6,57.1,30.06,ESE,112,0.0,0.0,88,0.00,,,0.00,WUHU21623XXSP,2013-05-10 13:12:00,
2013-05-10 09:17:00,60.8,57.3,30.06,ESE,112,0.0,0.0,88,0.00,,,0.00,WUHU21623XXSP,2013-05-10 13:17:00,
2013-05-10 09:22:00,61.0,57.4,30.06,ESE,112,0.0,0.0,88,0.00,,,0.00,WUHU21623XXSP,2013-05-10 13:22:00,
2013-05-10 09:27:00,61.5,58.0,30.06,ESE,112,0.0,0.0,88,0.00,,,0.00,WUHU21623XXSP,2013-05-10 13:27:00,
2013-05-10 09:32:00,61.9,58.3,30.06,ESE,112,0.0,0.0,88,0.00,,,0.00,WUHU21623XXSP,2013-05-10 13:32:00,
2013-05-10 09:37:00,62.8,59.2,30.06,ESE,112,0.0,0.0,88,0.00,,,0.00,WUHU21623XXSP,2013-05-10 13:37:00,
2013-05-10 09:42:00,63.3,59.8,30.06,ESE,112,0.0,0.0,88,0.00,,,0.00,WUHU21623XXSP,2013-05-10 13:42:00,
2013-05-10 09:47:00,64.2,60.3,30.07,ESE,112,0.0,0.0,87,0.00,,,0.00,WUHU21623XXSP,2013-05-10 13:47:00,
2013-05-10 09:52:00,64.0,59.8,30.07,ESE,112,0.0,0.0,86,0.00,,,0.00,WUHU21623XXSP,2013-05-10 13:52:00,
2013-05-10 09:57:00,63.9,59.6,30.07,ESE,112,0.0,0.0,86,0.00,,,0.00,WUHU21623XXSP,2013-05-10 13:57:00,
2013-05-10 10:02:00,63.7,59.4,30.07,ESE,112,0.0,0.0,86,0.00,,,0.00,WUHU21623XXSP,2013-05-10 14:02:00,
2013-05-10 10:07:00,64.2,60.0,30.07,ESE,112,0.0,0.0,86,0.00,,,0.00,WUHU21623XXSP,2013-05-10 14:07:00,
2013-05-10 10:12:00,65.5,61.2,30.07,ESE,112,0.0,0.0,86,0.00,,,0.00,WUHU21623XXSP,2013-05-10 14:12:00,
2013-05-10 10:17:00,66.7,61.7,30.07,ESE,112,0.0,0.0,84,0.00,,,0.00,WUHU21623XXSP,2013-05-10 14:17:00,
2013-05-10 10:22:00,68.5,63.2,30.06,ESE,112,0.0,0.0,83,0.00,,,0.00,WUHU21623XXSP,2013-05-10 14:22:00,
2013-05-10 10:27:00,69.4,63.0,30.06,West,270,0.0,0.0,80,0.00,,,0.00,WUHU21623XXSP,2013-05-10 14:27:00,
2013-05-10 10:32:00,70.3,62.7,30.06,South,180,0.0,0.0,77,0.00,,,0.00,WUHU21623XXSP,2013-05-10 14:32:00,
2013-05-10 10:37:00,70.7,62.7,30.06,SSW,202,0.0,0.0,76,0.00,,,0.00,WUHU21623XXSP,2013-05-10 14:37:00,
2013-05-10 10:42:00,70.5,62.2,30.07,SSW,202,0.0,0.0,75,0.00,,,0.00,WUHU21623XXSP,2013-05-10 14:42:00,
2013-05-10 10:47:00,70.9,62.5,30.07,SSW,202,0.0,0.0,75,0.00,,,0.00,WUHU21623XXSP,2013-05-10 14:47:00,
2013-05-10 10:52:00,70.9,62.5,30.06,West,270,0.0,0.0,75,0.00,,,0.00,WUHU21623XXSP,2013-05-10 14:52:00,
2013-05-10 10:57:00,70.5,62.2,30.07,West,270,0.0,0.0,75,0.00,,,0.00,WUHU21623XXSP,2013-05-10 14:57:00,
2013-05-10 11:02:00,69.8,61.4,30.07,ESE,112,0.0,0.0,75,0.00,,,0.00,WUHU21623XXSP,2013-05-10 15:02:00,
2013-05-10 11:07:00,69.8,61.8,30.07,West,270,0.0,0.0,76,0.00,,,0.00,WUHU21623XXSP,2013-05-10 15:07:00,
2013-05-10 11:12:00,70.0,61.6,30.07,SSW,202,0.0,0.0,75,0.00,,,0.00,WUHU21623XXSP,2013-05-10 15:12:00,
2013-05-10 11:17:00,70.0,61.2,30.07,SSW,202,0.0,0.0,74,0.00,,,0.00,WUHU21623XXSP,2013-05-10 15:17:00,
2013-05-10 11:22:00,69.6,61.3,30.07,ESE,112,0.0,0.0,75,0.00,,,0.00,WUHU21623XXSP,2013-05-10 15:22:00,
2013-05-10 11:27:00,69.8,61.4,30.07,West,270,0.0,0.0,75,0.00,,,0.00,WUHU21623XXSP,2013-05-10 15:27:00,
2013-05-10 11:32:00,70.0,61.6,30.07,West,270,0.0,0.0,75,0.00,,,0.00,WUHU21623XXSP,2013-05-10 15:32:00,
2013-05-10 11:37:00,70.0,61.6,30.07,SSW,202,0.0,0.0,75,0.00,,,0.00,WUHU21623XXSP,2013-05-10 15:37:00,
2013-05-10 11:42:00,69.8,61.4,30.07,ESE,112,0.0,0.0,75,0.00,,,0.00,WUHU21623XXSP,2013-05-10 15:42:00,
2013-05-10 11:47:00,70.5,62.2,30.07,NNE,22,0.0,0.0,75,0.00,,,0.00,WUHU21623XXSP,2013-05-10 15:47:00,
2013-05-10 11:52:00,70.7,62.0,30.07,West,270,0.0,0.0,74,0.00,,,0.00,WUHU21623XXSP,2013-05-10 15:52:00,
2013-05-10 11:57:00,71.1,61.9,30.07,SSW,202,0.0,0.0,73,0.00,,,0.00,WUHU21623XXSP,2013-05-10 15:57:00,
2013-05-10 12:02:00,70.9,61.4,30.07,North,0,0.0,0.0,72,0.00,,,0.00,WUHU21623XXSP,2013-05-10 16:02:00,
2013-05-10 12:07:00,71.1,61.6,30.07,ESE,112,0.0,0.0,72,0.00,,,0.00,WUHU21623XXSP,2013-05-10 16:07:00,
2013-05-10 12:12:00,71.2,61.4,30.06,West,270,0.0,0.0,71,0.00,,,0.00,WUHU21623XXSP,2013-05-10 16:12:00,
2013-05-10 12:17:00,71.6,60.9,30.06,SSW,202,0.0,0.0,69,0.00,,,0.00,WUHU21623XXSP,2013-05-10 16:17:00,
2013-05-10 12:22:00,71.4,61.2,30.07,SSW,202,0.0,0.0,70,0.00,,,0.00,WUHU21623XXSP,2013-05-10 16:22:00,
2013-05-10 12:27:00,71.2,60.5,30.06,West,270,0.0,0.0,69,0.00,,,0.00,WUHU21623XXSP,2013-05-10 16:27:00,
2013-05-10 12:32:00,71.4,60.7,30.06,SSW,202,0.0,0.0,69,0.00,,,0.00,WUHU21623XXSP,2013-05-10 16:32:00,
2013-05-10 12:37:00,71.4,60.3,30.07,West,270,0.0,0.0,68,0.00,,,0.00,WUHU21623XXSP,2013-05-10 16:37:00,
2013-05-10 12:42:00,71.6,60.9,30.06,West,270,0.0,0.0,69,0.00,,,0.00,WUHU21623XXSP,2013-05-10 16:42:00,
2013-05-10 12:47:00,72.1,61.4,30.06,East,90,0.0,0.0,69,0.00,,,0.00,WUHU21623XXSP,2013-05-10 16:47:00,
2013-05-10 12:52:00,73.0,62.3,30.06,SSW,202,0.0,0.0,69,0.00,,,0.00,WUHU21623XXSP,2013-05-10 16:52:00,
2013-05-10 12:57:00,73.0,62.3,30.05,South,180,0.0,0.0,69,0.00,,,0.00,WUHU21623XXSP,2013-05-10 16:57:00,
2013-05-10 13:02:00,73.0,61.4,30.06,WNW,292,0.0,0.0,67,0.00,,,0.00,WUHU21623XXSP,2013-05-10 17:02:00,
2013-05-10 13:07:00,72.5,60.9,30.06,West,270,0.0,0.0,67,0.00,,,0.00,WUHU21623XXSP,2013-05-10 17:07:00,
2013-05-10 13:13:00,71.8,60.6,30.06,WNW,292,0.0,0.0,68,0.00,,,0.00,WUHU21623XXSP,2013-05-10 17:13:00,
2013-05-10 13:18:00,71.4,60.7,30.06,West,270,0.0,0.0,69,0.00,,,0.00,WUHU21623XXSP,2013-05-10 17:18:00,
2013-05-10 13:23:00,71.2,60.5,30.05,West,270,0.0,0.0,69,0.00,,,0.00,WUHU21623XXSP,2013-05-10 17:23:00,
2013-05-10 13:28:00,72.1,61.4,30.04,South,180,0.0,0.0,69,0.00,,,0.00,WUHU21623XXSP,2013-05-10 17:28:00,
2013-05-10 13:33:00,72.3,61.2,30.05,WNW,292,0.0,0.0,68,0.00,,,0.00,WUHU21623XXSP,2013-05-10 17:33:00,
2013-05-10 13:38:00,72.5,61.4,30.05,WNW,292,0.0,0.0,68,0.00,,,0.00,WUHU21623XXSP,2013-05-10 17:38:00,
2013-05-10 13:43:00,72.5,61.8,30.05,WNW,292,0.0,0.0,69,0.00,,,0.00,WUHU21623XXSP,2013-05-10 17:43:00,
2013-05-10 13:48:00,72.3,61.2,30.05,SSW,202,0.0,0.0,68,0.00,,,0.00,WUHU21623XXSP,2013-05-10 17:48:00,
2013-05-10 13:53:00,72.5,61.4,30.05,West,270,0.0,0.0,68,0.00,,,0.00,WUHU21623XXSP,2013-05-10 17:53:00,
2013-05-10 13:58:00,72.3,61.6,30.05,NNE,22,0.0,0.0,69,0.00,,,0.00,WUHU21623XXSP,2013-05-10 17:58:00,
2013-05-10 14:03:00,72.1,61.4,30.04,West,270,0.0,0.0,69,0.00,,,0.00,WUHU21623XXSP,2013-05-10 18:03:00,
2013-05-10 14:08:00,72.1,61.4,30.04,North,0,0.0,0.0,69,0.00,,,0.00,WUHU21623XXSP,2013-05-10 18:08:00,
2013-05-10 14:13:00,72.1,61.4,30.03,SSW,202,0.0,0.0,69,0.00,,,0.00,WUHU21623XXSP,2013-05-10 18:13:00,
2013-05-10 14:18:00,72.0,60.8,30.03,East,90,0.0,0.0,68,0.00,,,0.00,WUHU21623XXSP,2013-05-10 18:18:00,
2013-05-10 14:23:00,72.0,61.3,30.03,WNW,292,0.0,0.0,69,0.00,,,0.00,WUHU21623XXSP,2013-05-10 18:23:00,
2013-05-10 14:28:00,71.8,61.5,30.03,North,0,0.0,0.0,70,0.00,,,0.00,WUHU21623XXSP,2013-05-10 18:28:00,
2013-05-10 14:33:00,71.8,61.5,30.03,West,270,0.0,0.0,70,0.00,,,0.00,WUHU21623XXSP,2013-05-10 18:33:00,
2013-05-10 14:38:00,71.8,60.6,30.02,WNW,292,0.0,0.0,68,0.00,,,0.00,WUHU21623XXSP,2013-05-10 18:38:00,
2013-05-10 14:43:00,71.6,60.9,30.02,East,90,0.0,0.0,69,0.00,,,0.00,WUHU21623XXSP,2013-05-10 18:43:00,
2013-05-10 14:48:00,71.8,60.6,30.02,SSW,202,0.0,0.0,68,0.00,,,0.00,WUHU21623XXSP,2013-05-10 18:48:00,
2013-05-10 14:53:00,72.1,61.4,30.02,West,270,0.0,0.0,69,0.00,,,0.00,WUHU21623XXSP,2013-05-10 18:53:00,
2013-05-10 14:58:00,72.0,60.8,30.02,West,270,0.0,0.0,68,0.00,,,0.00,WUHU21623XXSP,2013-05-10 18:58:00,
2013-05-10 15:03:00,71.8,60.2,30.02,NNE,22,0.0,0.0,67,0.00,,,0.00,WUHU21623XXSP,2013-05-10 19:03:00,
2013-05-10 15:08:00,71.4,59.9,30.02,SSW,202,0.0,0.0,67,0.00,,,0.00,WUHU21623XXSP,2013-05-10 19:08:00,
2013-05-10 15:13:00,71.4,60.3,30.02,South,180,0.0,0.0,68,0.00,,,0.00,WUHU21623XXSP,2013-05-10 19:13:00,
2013-05-10 15:18:00,71.4,59.9,30.02,SSW,202,0.0,0.0,67,0.00,,,0.00,WUHU21623XXSP,2013-05-10 19:18:00,
2013-05-10 15:23:00,71.4,60.3,30.02,ESE,112,0.0,0.0,68,0.00,,,0.00,WUHU21623XXSP,2013-05-10 19:23:00,
2013-05-10 15:28:00,71.4,59.4,30.01,South,180,0.0,0.0,66,0.00,,,0.00,WUHU21623XXSP,2013-05-10 19:28:00,
2013-05-10 15:33:00,71.4,59.9,30.01,SSW,202,0.0,0.0,67,0.00,,,0.00,WUHU21623XXSP,2013-05-10 19:33:00,
2013-05-10 15:38:00,71.2,59.3,30.00,East,90,0.0,0.0,66,0.00,,,0.00,WUHU21623XXSP,2013-05-10 19:38:00,
2013-05-10 15:43:00,71.2,58.8,30.00,East,90,0.0,0.0,65,0.00,,,0.00,WUHU21623XXSP,2013-05-10 19:43:00,
2013-05-10 15:48:00,71.2,59.3,30.00,SSW,202,0.0,0.0,66,0.00,,,0.00,WUHU21623XXSP,2013-05-10 19:48:00,
2013-05-10 15:53:00,70.9,59.3,30.00,ESE,112,0.0,0.0,67,0.00,,,0.00,WUHU21623XXSP,2013-05-10 19:53:00,
2013-05-10 15:58:00,70.5,59.0,30.00,South,180,0.0,0.0,67,0.00,,,0.00,WUHU21623XXSP,2013-05-10 19:58:00,
2013-05-10 16:03:00,70.3,58.8,30.00,West,270,0.0,0.0,67,0.00,,,0.00,WUHU21623XXSP,2013-05-10 20:03:00,
2013-05-10 16:08:00,70.3,58.4,29.99,SSW,202,0.0,0.0,66,0.00,,,0.00,WUHU21623XXSP,2013-05-10 20:08:00,
2013-05-10 16:13:00,70.2,58.2,29.99,West,270,0.0,0.0,66,0.00,,,0.00,WUHU21623XXSP,2013-05-10 20:13:00,
2013-05-10 16:18:00,70.3,58.4,29.99,West,270,0.0,0.0,66,0.00,,,0.00,WUHU21623XXSP,2013-05-10 20:18:00,
2013-05-10 16:23:00,70.2,58.6,29.99,ESE,112,0.0,0.0,67,0.00,,,0.00,WUHU21623XXSP,2013-05-10 20:23:00,
2013-05-10 16:28:00,70.2,58.6,29.99,South,180,0.0,0.0,67,0.00,,,0.00,WUHU21623XXSP,2013-05-10 20:28:00,
2013-05-10 16:33:00,70.2,59.1,29.99,East,90,0.0,0.0,68,0.00,,,0.00,WUHU21623XXSP,2013-05-10 20:33:00,
2013-05-10 16:38:00,70.0,58.9,29.99,West,270,0.0,0.0,68,0.00,,,0.00,WUHU21623XXSP,2013-05-10 20:38:00,
2013-05-10 16:43:00,70.0,58.9,29.99,West,270,0.0,0.0,68,0.00,,,0.00,WUHU21623XXSP,2013-05-10 20:43:00,
2013-05-10 16:48:00,70.0,58.5,29.99,South,180,0.0,0.0,67,0.00,,,0.00,WUHU21623XXSP,2013-05-10 20:48:00,
2013-05-10 16:53:00,70.2,59.5,29.99,ENE,67,0.9,1.0,69,0.00,,,0.00,WUHU21623XXSP,2013-05-10 20:53:00,
2013-05-10 16:58:00,70.2,59.1,29.99,South,180,0.0,1.0,68,0.00,,,0.00,WUHU21623XXSP,2013-05-10 20:58:00,
2013-05-10 17:03:00,70.0,59.3,29.99,SSW,202,0.0,0.0,69,0.00,,,0.00,WUHU21623XXSP,2013-05-10 21:03:00,
2013-05-10 17:08:00,69.8,58.5,29.99,SSW,202,0.0,0.0,69,0.00,,,0.00,WUHU21623XXSP,2013-05-10 21:08:00,
2013-05-10 17:13:00,69.8,58.7,29.98,West,270,0.0,0.0,68,0.00,,,0.00,WUHU21623XXSP,2013-05-10 21:13:00,
2013-05-10 17:18:00,69.6,58.9,29.98,SSW,202,0.0,0.0,69,0.00,,,0.00,WUHU21623XXSP,2013-05-10 21:18:00,
2013-05-10 17:23:00,69.6,59.4,29.99,South,180,0.0,0.0,70,0.00,,,0.00,WUHU21623XXSP,2013-05-10 21:23:00,
2013-05-10 17:28:00,69.6,59.4,29.98,SSW,202,0.0,0.0,70,0.00,,,0.00,WUHU21623XXSP,2013-05-10 21:28:00,
2013-05-10 17:34:00,69.6,59.4,29.97,South,180,0.0,0.0,70,0.00,,,0.00,WUHU21623XXSP,2013-05-10 21:34:00,
2013-05-10 17:39:00,69.8,59.9,29.97,East,90,0.0,0.0,71,0.00,,,0.00,WUHU21623XXSP,2013-05-10 21:39:00,
2013-05-10 17:43:00,70.0,60.1,29.97,SSW,202,0.0,0.0,71,0.00,,,0.00,WUHU21623XXSP,2013-05-10 21:43:00,
2013-05-10 17:49:00,70.0,60.1,29.97,West,270,0.0,0.0,71,0.00,,,0.00,WUHU21623XXSP,2013-05-10 21:49:00,
2013-05-10 17:54:00,70.0,60.1,29.97,West,270,0.0,0.0,71,0.00,,,0.00,WUHU21623XXSP,2013-05-10 21:54:00,
2013-05-10 17:58:00,70.2,60.7,29.96,West,270,0.0,0.0,72,0.00,,,0.00,WUHU21623XXSP,2013-05-10 21:58:00,
2013-05-10 18:03:00,70.2,60.7,29.96,North,0,0.0,0.0,72,0.00,,,0.00,WUHU21623XXSP,2013-05-10 22:03:00,
2013-05-10 18:08:00,70.0,60.9,29.96,WNW,292,0.0,0.0,73,0.00,,,0.00,WUHU21623XXSP,2013-05-10 22:08:00,
2013-05-10 18:13:00,69.8,61.1,29.96,WNW,292,0.0,0.0,74,0.00,,,0.00,WUHU21623XXSP,2013-05-10 22:13:00,
2013-05-10 18:18:00,69.6,60.9,29.96,West,270,0.0,0.0,74,0.00,,,0.00,WUHU21623XXSP,2013-05-10 22:18:00,
2013-05-10 18:23:00,69.1,61.2,29.96,SSW,202,0.0,0.0,76,0.00,,,0.00,WUHU21623XXSP,2013-05-10 22:23:00,
2013-05-10 18:28:00,68.7,61.2,29.96,SSW,202,0.0,0.0,77,0.00,,,0.00,WUHU21623XXSP,2013-05-10 22:28:00,
2013-05-10 18:33:00,68.5,61.4,29.96,SSW,202,0.0,0.0,78,0.00,,,0.00,WUHU21623XXSP,2013-05-10 22:33:00,
2013-05-10 18:38:00,68.2,61.1,29.96,SSW,202,0.0,0.0,78,0.00,,,0.00,WUHU21623XXSP,2013-05-10 22:38:00,
2013-05-10 18:43:00,68.2,60.7,29.96,South,180,0.0,0.0,77,0.00,,,0.00,WUHU21623XXSP,2013-05-10 22:43:00,
2013-05-10 18:48:00,68.2,60.4,29.96,South,180,0.0,0.0,76,0.00,,,0.00,WUHU21623XXSP,2013-05-10 22:48:00,
2013-05-10 18:53:00,68.2,60.4,29.96,South,180,0.0,0.0,76,0.00,,,0.00,WUHU21623XXSP,2013-05-10 22:53:00,
2013-05-10 18:58:00,68.2,60.4,29.96,ESE,112,0.0,0.0,76,0.00,,,0.00,WUHU21623XXSP,2013-05-10 22:58:00,
2013-05-10 19:03:00,68.2,60.4,29.96,East,90,0.0,0.0,76,0.00,,,0.00,WUHU21623XXSP,2013-05-10 23:03:00,
2013-05-10 19:08:00,68.5,59.9,29.96,SSW,202,0.0,0.0,74,0.00,,,0.00,WUHU21623XXSP,2013-05-10 23:08:00,
2013-05-10 19:13:00,68.5,59.9,29.96,SSW,202,0.0,0.0,74,0.00,,,0.00,WUHU21623XXSP,2013-05-10 23:13:00,
2013-05-10 19:18:00,68.2,59.6,29.96,NNE,22,0.0,0.0,74,0.00,,,0.00,WUHU21623XXSP,2013-05-10 23:18:00,
2013-05-10 19:23:00,68.2,59.2,29.96,SSW,202,0.0,0.0,73,0.00,,,0.00,WUHU21623XXSP,2013-05-10 23:23:00,
2013-05-10 19:28:00,68.2,59.2,29.96,SSW,202,0.0,0.0,73,0.00,,,0.00,WUHU21623XXSP,2013-05-10 23:28:00,
2013-05-10 19:33:00,68.4,59.0,29.96,SSW,202,0.0,0.0,72,0.00,,,0.00,WUHU21623XXSP,2013-05-10 23:33:00,
2013-05-10 19:38:00,68.5,58.8,29.95,North,0,0.0,0.0,71,0.00,,,0.00,WUHU21623XXSP,2013-05-10 23:38:00,
2013-05-10 19:43:00,68.4,58.6,29.95,SSW,202,0.0,0.0,71,0.00,,,0.00,WUHU21623XXSP,2013-05-10 23:43:00,
2013-05-10 19:48:00,68.7,58.6,29.95,South,180,0.0,0.0,70,0.00,,,0.00,WUHU21623XXSP,2013-05-10 23:48:00,
2013-05-10 19:53:00,68.9,58.7,29.96,East,90,0.0,0.0,70,0.00,,,0.00,WUHU21623XXSP,2013-05-10 23:53:00,
2013-05-10 19:58:00,68.9,58.7,29.96,SSW,202,0.0,0.0,70,0.00,,,0.00,WUHU21623XXSP,2013-05-10 23:58:00,
2013-05-10 20:03:00,68.7,58.6,29.96,South,180,0.0,0.0,70,0.00,,,0.00,WUHU21623XXSP,2013-05-11 00:03:00,
2013-05-10 20:08:00,68.7,58.6,29.96,SSW,202,0.0,0.0,70,0.00,,,0.00,WUHU21623XXSP,2013-05-11 00:08:00,
2013-05-10 20:13:00,68.5,58.4,29.96,ESE,112,0.0,0.0,70,0.00,,,0.00,WUHU21623XXSP,2013-05-11 00:13:00,
2013-05-10 20:18:00,68.5,58.4,29.96,South,180,0.0,0.0,70,0.00,,,0.00,WUHU21623XXSP,2013-05-11 00:18:00,
2013-05-10 20:23:00,68.5,58.4,29.97,East,90,0.0,0.0,70,0.00,,,0.00,WUHU21623XXSP,2013-05-11 00:23:00,
2013-05-10 20:28:00,68.4,58.2,29.97,South,180,0.0,0.0,70,0.00,,,0.00,WUHU21623XXSP,2013-05-11 00:28:00,
2013-05-10 20:33:00,68.2,58.1,29.97,South,180,0.0,0.0,70,0.00,,,0.00,WUHU21623XXSP,2013-05-11 00:33:00,
2013-05-10 20:38:00,68.0,57.9,29.98,SSW,202,0.0,0.0,70,0.00,,,0.00,WUHU21623XXSP,2013-05-11 00:38:00,
2013-05-10 20:43:00,68.0,57.9,29.98,SSW,202,0.0,0.0,70,0.00,,,0.00,WUHU21623XXSP,2013-05-11 00:43:00,
2013-05-10 20:48:00,67.8,58.1,29.97,ESE,112,0.0,0.0,71,0.00,,,0.00,WUHU21623XXSP,2013-05-11 00:48:00,
2013-05-10 20:53:00,67.6,58.3,29.97,ESE,112,0.0,0.0,72,0.00,,,0.00,WUHU21623XXSP,2013-05-11 00:53:00,
2013-05-10 20:58:00,67.6,58.3,29.97,ESE,112,0.0,0.0,72,0.00,,,0.00,WUHU21623XXSP,2013-05-11 00:58:00,
2013-05-10 21:03:00,67.5,58.1,29.97,South,180,0.0,0.0,72,0.00,,,0.00,WUHU21623XXSP,2013-05-11 01:03:00,
2013-05-10 21:08:00,67.3,58.0,29.97,ESE,112,0.0,0.0,72,0.00,,,0.00,WUHU21623XXSP,2013-05-11 01:08:00,
2013-05-10 21:14:00,67.1,57.8,29.97,South,180,0.0,0.0,72,0.00,,,0.00,WUHU21623XXSP,2013-05-11 01:14:00,
2013-05-10 21:19:00,66.9,57.6,29.97,SSW,202,0.0,0.0,72,0.00,,,0.00,WUHU21623XXSP,2013-05-11 01:19:00,
2013-05-10 21:24:00,67.1,57.8,29.97,South,180,0.0,0.0,72,0.00,,,0.00,WUHU21623XXSP,2013-05-11 01:24:00,
2013-05-10 21:29:00,67.1,57.8,29.97,ESE,112,0.0,0.0,72,0.00,,,0.00,WUHU21623XXSP,2013-05-11 01:29:00,
2013-05-10 21:34:00,67.1,57.4,29.98,North,0,0.0,0.0,71,0.00,,,0.00,WUHU21623XXSP,2013-05-11 01:34:00,
2013-05-10 21:39:00,67.3,57.6,29.98,WNW,292,0.0,0.0,71,0.00,,,0.00,WUHU21623XXSP,2013-05-11 01:39:00,
2013-05-10 21:44:00,67.5,57.8,29.98,ESE,112,0.0,0.0,71,0.00,,,0.00,WUHU21623XXSP,2013-05-11 01:44:00,
2013-05-10 21:49:00,67.3,57.6,29.98,South,180,0.0,0.0,71,0.00,,,0.00,WUHU21623XXSP,2013-05-11 01:49:00,
2013-05-10 21:54:00,67.3,57.6,29.98,SSW,202,0.0,0.0,71,0.00,,,0.00,WUHU21623XXSP,2013-05-11 01:54:00,
2013-05-10 21:59:00,67.3,57.6,29.98,South,180,0.0,0.0,71,0.00,,,0.00,WUHU21623XXSP,2013-05-11 01:59:00,
2013-05-10 22:04:00,67.3,57.6,29.99,SSW,202,0.0,0.0,71,0.00,,,0.00,WUHU21623XXSP,2013-05-11 02:04:00,
2013-05-10 22:09:00,67.3,57.6,29.98,ESE,112,0.0,0.0,71,0.00,,,0.00,WUHU21623XXSP,2013-05-11 02:09:00,
2013-05-10 22:14:00,67.3,57.6,29.98,East,90,0.0,0.0,71,0.00,,,0.00,WUHU21623XXSP,2013-05-11 02:14:00,
2013-05-10 22:19:00,67.3,57.6,29.98,ESE,112,0.0,0.0,71,0.00,,,0.00,WUHU21623XXSP,2013-05-11 02:19:00,
2013-05-10 22:24:00,67.3,57.6,29.99,ESE,112,0.0,0.0,71,0.00,,,0.00,WUHU21623XXSP,2013-05-11 02:24:00,
2013-05-10 22:29:00,67.1,57.4,29.99,ESE,112,0.0,0.0,71,0.00,,,0.00,WUHU21623XXSP,2013-05-11 02:29:00,
2013-05-10 22:34:00,67.1,57.4,29.99,ESE,112,0.0,0.0,71,0.00,,,0.00,WUHU21623XXSP,2013-05-11 02:34:00,
2013-05-10 22:39:00,66.9,57.6,29.99,ESE,112,0.0,0.0,72,0.00,,,0.00,WUHU21623XXSP,2013-05-11 02:39:00,
2013-05-10 22:44:00,66.7,57.4,29.99,South,180,0.0,0.0,72,0.00,,,0.00,WUHU21623XXSP,2013-05-11 02:44:00,
2013-05-10 22:49:00,66.6,57.2,29.99,SSW,202,0.0,0.0,72,0.00,,,0.00,WUHU21623XXSP,2013-05-11 02:49:00,
2013-05-10 22:54:00,66.7,57.4,29.99,South,180,0.0,0.0,72,0.00,,,0.00,WUHU21623XXSP,2013-05-11 02:54:00,
2013-05-10 22:59:00,66.7,57.4,29.99,South,180,0.0,0.0,72,0.00,,,0.00,WUHU21623XXSP,2013-05-11 02:59:00,
2013-05-10 23:04:00,66.7,57.4,29.99,ESE,112,0.0,0.0,72,0.00,,,0.00,WUHU21623XXSP,2013-05-11 03:04:00,
2013-05-10 23:09:00,66.6,57.2,29.98,ESE,112,0.0,0.0,72,0.00,,,0.00,WUHU21623XXSP,2013-05-11 03:09:00,
2013-05-10 23:14:00,66.7,57.4,29.98,ESE,112,0.0,0.0,72,0.00,,,0.00,WUHU21623XXSP,2013-05-11 03:14:00,
2013-05-10 23:19:00,66.7,57.4,29.98,South,180,0.0,0.0,72,0.00,,,0.00,WUHU21623XXSP,2013-05-11 03:19:00,
2013-05-10 23:24:00,66.7,57.4,29.99,South,180,0.0,0.0,72,0.00,,,0.00,WUHU21623XXSP,2013-05-11 03:24:00,
2013-05-10 23:29:00,66.6,57.2,29.99,SSW,202,0.0,0.0,72,0.00,,,0.00,WUHU21623XXSP,2013-05-11 03:29:00,
2013-05-10 23:34:00,66.6,57.2,29.99,SSW,202,0.0,0.0,72,0.00,,,0.00,WUHU21623XXSP,2013-05-11 03:34:00,
2013-05-10 23:39:00,66.6,57.2,29.98,ESE,112,0.0,0.0,72,0.00,,,0.00,WUHU21623XXSP,2013-05-11 03:39:00,
2013-05-10 23:44:00,66.4,57.1,29.99,South,180,0.0,0.0,72,0.00,,,0.00,WUHU21623XXSP,2013-05-11 03:44:00,
2013-05-10 23:49:00,66.4,57.4,29.98,South,180,0.0,0.0,73,0.00,,,0.00,WUHU21623XXSP,2013-05-11 03:49:00,
2013-05-10 23:54:00,66.6,57.2,29.98,SSW,202,0.0,0.0,72,0.00,,,0.00,WUHU21623XXSP,2013-05-11 03:54:00,
2013-05-10 23:59:00,66.4,57.4,29.98,SSW,202,0.0,0.0,73,0.00,,,0.00,WUHU21623XXSP,2013-05-11 03:59:00,